Date String (YYYY-MM-DD hh:mm:ss) UTC,Instrument flags,Ambient pressure (hPa),Sample flow (lpm),Bypass flow (lpm),Sample temperature (°C),Ambient temperature (°C),ASC tube jacket temperature (°C),LED temperature (°C),Box temperature (°C),Sample RH (%),Span deviation,Mass concentration (μg/m³),Mass concentration (μg/m³),Mass concentration (μg/m³)
DateTimeUTC,F1_M11,P_M11,Q1_M11,Q2_M11,T1_M11,T2_M11,T3_M11,T4_M11,T5_M11,U1_M11,ZSPAN_M11,X2_M11,X0_M11,X1_M11
2023-02-16 19:00:00,,0827.8,4.99,0.00,21.6,19.8,00.0,30.7,23.3,07.8,0000.0,0004.05,0007.12,0003.67
2023-02-16 19:01:00,,0827.8,5.01,0.00,21.7,20.2,00.0,30.6,23.3,07.8,0000.0,0004.10,0007.19,0003.71
2023-02-16 19:02:00,,0827.8,5.00,0.00,21.8,21.8,00.0,30.6,23.7,07.8,0000.0,0004.12,0007.26,0003.74
2023-02-16 19:03:00,,0827.8,5.02,0.00,21.9,22.9,00.0,30.6,24.0,07.6,0000.0,0004.17,0008.10,0003.77
2023-02-16 19:04:00,,0827.8,5.06,0.00,22.0,22.5,00.0,30.7,24.1,07.6,0000.0,0004.21,0008.38,0003.81
2023-02-16 19:05:00,,0827.7,5.03,0.00,22.1,22.0,00.0,30.7,24.0,07.4,0000.0,0004.27,0008.44,0003.85
2023-02-16 19:06:00,,0827.7,4.98,0.00,22.1,21.6,00.0,30.8,23.9,07.7,0000.0,0004.28,0008.57,0003.86
2023-02-16 19:07:00,,0827.7,5.00,0.00,22.1,21.2,00.0,30.8,23.8,07.6,0000.0,0004.33,0008.60,0003.90
2023-02-16 19:08:00,,0827.7,5.00,0.00,22.0,20.9,00.0,30.8,23.8,07.5,0000.0,0004.37,0008.56,0003.94
2023-02-16 19:09:00,,0827.7,5.02,0.00,22.0,20.6,00.0,30.8,23.7,07.7,0000.0,0004.40,0008.63,0003.96
2023-02-16 19:10:00,,0827.7,4.98,0.00,22.0,20.4,00.0,30.8,23.6,07.5,0000.0,0004.47,0008.79,0003.99
2023-02-16 19:11:00,,0827.7,5.03,0.00,21.9,20.3,00.0,30.8,23.5,07.5,0000.0,0004.50,0008.85,0004.03
2023-02-16 19:12:00,,0827.7,4.98,0.00,21.9,20.2,00.0,30.8,23.5,07.7,0000.0,0004.55,0009.00,0004.07
2023-02-16 19:13:00,,0827.7,5.03,0.00,21.9,20.1,00.0,30.8,23.5,07.8,0000.0,0004.60,0009.84,0004.12
2023-02-16 19:14:00,,0827.7,5.00,0.00,21.9,20.0,00.0,30.8,23.5,07.8,0000.0,0004.64,0009.17,0004.17
2023-02-16 19:15:00,,0827.6,5.01,0.00,21.8,20.0,00.0,30.8,23.4,07.7,0000.0,0004.69,0008.96,0004.21
2023-02-16 19:16:00,,0827.6,5.02,0.00,21.8,20.0,00.0,30.8,23.4,07.7,0000.0,0004.73,0008.86,0004.25
2023-02-16 19:17:00,,0827.6,5.03,0.00,21.8,20.0,00.0,30.8,23.4,07.8,0000.0,0004.80,0008.96,0004.31
2023-02-16 19:18:00,,0827.6,4.99,0.00,21.8,20.0,00.0,30.8,23.4,07.9,0000.0,0004.82,0009.48,0004.33
2023-02-16 19:19:00,,0827.5,4.99,0.00,21.8,20.1,00.0,30.7,23.5,08.0,0000.0,0004.83,0009.41,0004.36
2023-02-16 19:20:00,,0827.5,4.99,0.00,21.8,20.1,00.0,30.7,23.5,08.0,0000.0,0004.88,0009.54,0004.39
2023-02-16 19:21:00,,0827.5,5.00,0.00,21.8,20.1,00.0,30.7,23.5,08.0,0000.0,0004.89,0009.63,0004.43
2023-02-16 19:22:00,,0827.5,5.00,0.00,21.8,20.1,00.0,30.7,23.4,08.0,0000.0,0004.92,0009.64,0004.46
2023-02-16 19:23:00,,0827.5,5.04,0.00,21.7,20.0,00.0,30.7,23.4,08.0,0000.0,0004.95,0009.70,0004.48
2023-02-16 19:24:00,,0827.5,5.01,0.00,21.7,20.0,00.0,30.7,23.4,07.9,0000.0,0004.97,0008.93,0004.50
2023-02-16 19:25:00,,0827.5,5.03,0.00,21.7,19.9,00.0,30.7,23.3,07.8,0000.0,0005.00,0008.87,0004.51
2023-02-16 19:26:00,,0827.5,4.96,0.00,21.7,19.9,00.0,30.7,23.3,07.8,0000.0,0005.02,0008.90,0004.53
2023-02-16 19:27:00,,0827.5,5.00,0.00,21.7,19.9,00.0,30.6,23.3,08.0,0000.0,0005.02,0008.89,0004.55
2023-02-16 19:28:00,,0827.5,4.97,0.00,21.7,20.0,00.0,30.6,23.4,08.0,0000.0,0005.01,0008.74,0004.57
2023-02-16 19:29:00,,0827.5,5.00,0.00,21.7,20.0,00.0,30.6,23.4,08.0,0000.0,0005.05,0008.43,0004.58
2023-02-16 19:30:00,,0827.5,4.96,0.00,21.7,20.0,00.0,30.6,23.4,08.1,0000.0,0005.10,0009.15,0004.60
2023-02-16 19:31:00,,0827.6,5.00,0.00,21.7,20.1,00.0,30.6,23.4,08.2,0000.0,0005.12,0009.14,0004.62
2023-02-16 19:32:00,,0827.6,4.99,0.00,21.7,20.1,00.0,30.6,23.4,08.0,0000.0,0005.14,0009.00,0004.63
2023-02-16 19:33:00,,0827.6,5.01,0.00,21.7,20.0,00.0,30.6,23.4,08.2,0000.0,0005.15,0009.03,0004.64
2023-02-16 19:34:00,,0827.5,4.99,0.00,21.7,19.9,00.0,30.6,23.3,08.0,0000.0,0005.15,0009.25,0004.65
2023-02-16 19:35:00,,0827.6,5.00,0.00,21.7,20.7,00.0,30.6,23.5,08.3,0000.0,0005.16,0009.35,0004.65
2023-02-16 19:36:00,,0827.5,4.95,0.00,21.8,22.2,00.0,30.6,23.9,08.1,0000.0,0005.17,0009.73,0004.65
2023-02-16 19:37:00,,0827.6,4.95,0.00,22.0,22.7,00.0,30.6,24.1,08.2,0000.0,0005.18,0010.06,0004.65
2023-02-16 19:38:00,,0827.6,4.99,0.00,22.0,22.2,00.0,30.7,24.0,07.9,0000.0,0005.18,0010.29,0004.64
2023-02-16 19:39:00,,0827.5,5.00,0.00,22.1,21.7,00.0,30.7,24.0,08.0,0000.0,0005.17,0010.30,0004.63
2023-02-16 19:40:00,,0827.5,5.03,0.00,22.0,21.3,00.0,30.8,23.9,07.8,0000.0,0005.15,0010.30,0004.64
2023-02-16 19:41:00,,0827.6,5.00,0.00,22.0,21.1,00.0,30.8,23.8,08.0,0000.0,0005.16,0009.64,0004.65
2023-02-16 19:42:00,,0827.5,4.99,0.00,22.0,20.9,00.0,30.8,23.8,08.2,0000.0,0005.19,0009.75,0004.66
2023-02-16 19:43:00,,0827.5,5.00,0.00,22.0,20.8,00.0,30.8,23.8,08.2,0000.0,0005.19,0009.80,0004.67
2023-02-16 19:44:00,,0827.4,5.01,0.00,22.0,20.7,00.0,30.8,23.8,08.1,0000.0,0005.18,0009.97,0004.68
2023-02-16 19:45:00,,0827.4,4.99,0.00,22.0,20.7,00.0,30.8,23.8,07.9,0000.0,0005.19,0009.97,0004.69
2023-02-16 19:46:00,,0827.4,5.00,0.00,22.0,20.7,00.0,30.8,23.8,08.0,0000.0,0005.20,0009.84,0004.72
2023-02-16 19:47:00,,0827.4,5.00,0.00,22.0,20.7,00.0,30.8,23.8,08.2,0000.0,0005.17,0009.44,0004.72
2023-02-16 19:48:00,,0827.4,5.00,0.00,22.0,20.6,00.0,30.9,23.8,08.1,0000.0,0005.16,0009.09,0004.73
2023-02-16 19:49:00,,0827.4,5.00,0.00,22.0,20.6,00.0,30.9,23.8,08.2,0000.0,0005.19,0009.00,0004.75
2023-02-16 19:50:00,,0827.4,5.01,0.00,22.1,20.6,00.0,30.9,23.8,08.1,0000.0,0005.22,0009.09,0004.77
2023-02-16 19:51:00,,0827.4,5.00,0.00,22.1,20.6,00.0,30.9,23.9,08.2,0000.0,0005.24,0008.94,0004.79
2023-02-16 19:52:00,,0827.4,4.99,0.00,22.0,20.6,00.0,30.9,23.8,08.1,0000.0,0005.25,0008.96,0004.79
2023-02-16 19:53:00,,0827.4,5.00,0.00,22.0,20.5,00.0,30.9,23.8,08.1,0000.0,0005.25,0008.91,0004.80
2023-02-16 19:54:00,,0827.4,4.99,0.00,22.0,20.5,00.0,30.9,23.8,08.2,0000.0,0005.27,0009.52,0004.79
2023-02-16 19:55:00,,0827.4,5.00,0.00,22.0,20.5,00.0,30.9,23.8,08.1,0000.0,0005.30,0009.56,0004.79
2023-02-16 19:56:00,,0827.4,5.00,0.00,22.1,20.5,00.0,30.9,23.9,08.3,0000.0,0005.29,0009.12,0004.79
2023-02-16 19:57:00,,0827.4,5.00,0.00,22.0,20.5,00.0,30.9,23.9,08.3,0000.0,0005.29,0009.06,0004.79
2023-02-16 19:58:00,,0827.4,5.02,0.00,22.1,20.5,00.0,30.9,23.9,08.4,0000.0,0005.32,0009.13,0004.81
2023-02-16 19:59:00,,0827.4,5.00,0.00,22.1,20.5,00.0,30.9,23.9,08.6,0000.0,0005.35,0009.17,0004.82
